Time,TemperatureF,DewpointF,PressureIn,WindDirection,WindDirectionDegrees,WindSpeedMPH,WindSpeedGustMPH,Humidity,HourlyPrecipIn,Conditions,Clouds,dailyrainin,SolarRadiationWatts/m^2,SoftwareType,DateUTC
2013-03-15 00:23:00,35.0,25.0,-100.00,SW,226,5.0,11.0,67,0.00,,,0.00,0.000000,,2013-03-15 04:23:00,
2013-03-15 00:33:00,35.0,25.0,-100.00,SW,226,5.0,11.0,67,0.00,,,0.00,0.000000,,2013-03-15 04:33:00,
2013-03-15 00:43:00,35.0,25.0,-100.00,SW,226,5.0,11.0,67,0.00,,,0.00,0.000000,,2013-03-15 04:43:00,
2013-03-15 00:52:00,35.0,25.0,-100.00,SW,226,5.0,11.0,67,0.00,,,0.00,0.000000,,2013-03-15 04:52:00,
2013-03-15 01:23:00,33.0,27.0,-100.00,WSW,239,4.0,10.0,77,0.00,,,-99.99,0.000000,,2013-03-15 05:23:00,
2013-03-15 01:32:00,33.0,27.0,-100.00,WSW,239,4.0,10.0,77,0.00,,,-99.99,0.000000,,2013-03-15 05:32:00,
2013-03-15 01:42:00,33.0,27.0,-100.00,WSW,239,4.0,10.0,77,0.00,,,-99.99,0.000000,,2013-03-15 05:42:00,
2013-03-15 01:52:00,33.0,27.0,-100.00,WSW,239,4.0,10.0,77,0.00,,,-99.99,0.000000,,2013-03-15 05:52:00,
2013-03-15 02:22:00,32.0,27.0,-100.00,SSW,213,3.0,5.0,81,0.00,,,0.00,0.000000,,2013-03-15 06:22:00,
2013-03-15 02:32:00,32.0,27.0,-100.00,SSW,213,3.0,5.0,81,0.00,,,0.00,0.000000,,2013-03-15 06:32:00,
2013-03-15 02:42:00,32.0,27.0,-100.00,SSW,213,3.0,5.0,81,0.00,,,0.00,0.000000,,2013-03-15 06:42:00,
2013-03-15 02:52:00,32.0,27.0,-100.00,SSW,213,3.0,5.0,81,0.00,,,0.00,0.000000,,2013-03-15 06:52:00,
2013-03-15 03:22:00,30.0,26.0,-100.00,SSW,207,2.0,7.0,86,0.00,,,0.00,0.000000,,2013-03-15 07:22:00,
2013-03-15 03:32:00,30.0,26.0,-100.00,SSW,207,2.0,7.0,86,0.00,,,0.00,0.000000,,2013-03-15 07:32:00,
2013-03-15 03:42:00,30.0,26.0,-100.00,SSW,207,2.0,7.0,86,0.00,,,0.00,0.000000,,2013-03-15 07:42:00,
2013-03-15 03:52:00,30.0,26.0,-100.00,SSW,207,2.0,7.0,86,0.00,,,0.00,0.000000,,2013-03-15 07:52:00,
2013-03-15 04:23:00,30.0,27.0,-100.00,SSW,203,2.0,4.0,88,0.00,,,0.00,0.000000,,2013-03-15 08:23:00,
2013-03-15 04:33:00,30.0,27.0,-100.00,SSW,203,2.0,4.0,88,0.00,,,0.00,0.000000,,2013-03-15 08:33:00,
2013-03-15 04:42:00,30.0,27.0,-100.00,SSW,203,2.0,4.0,88,0.00,,,0.00,0.000000,,2013-03-15 08:42:00,
2013-03-15 04:52:00,30.0,27.0,-100.00,SSW,203,2.0,4.0,88,0.00,,,0.00,0.000000,,2013-03-15 08:52:00,
2013-03-15 05:22:00,31.0,28.0,-100.00,South,184,4.0,8.0,88,0.00,,,0.00,0.000000,,2013-03-15 09:22:00,
2013-03-15 05:33:00,31.0,28.0,-100.00,South,184,4.0,8.0,88,0.00,,,0.00,0.000000,,2013-03-15 09:33:00,
2013-03-15 05:43:00,31.0,28.0,-100.00,South,184,4.0,8.0,88,0.00,,,0.00,0.000000,,2013-03-15 09:43:00,
2013-03-15 05:53:00,31.0,28.0,-100.00,South,184,4.0,8.0,88,0.00,,,0.00,0.000000,,2013-03-15 09:53:00,
2013-03-15 06:23:00,32.0,28.0,-100.00,SSW,193,4.0,9.0,85,0.00,,,0.00,0.000000,,2013-03-15 10:23:00,
2013-03-15 06:33:00,32.0,28.0,-100.00,SSW,193,4.0,9.0,85,0.00,,,0.00,0.000000,,2013-03-15 10:33:00,
2013-03-15 06:43:00,32.0,28.0,-100.00,SSW,193,4.0,9.0,85,0.00,,,0.00,0.000000,,2013-03-15 10:43:00,
2013-03-15 06:52:00,32.0,28.0,-100.00,SSW,193,4.0,9.0,85,0.00,,,0.00,0.000000,,2013-03-15 10:52:00,
2013-03-15 07:23:00,32.0,28.0,-100.00,South,176,4.0,7.0,84,0.00,,,0.00,0.000000,,2013-03-15 11:23:00,
2013-03-15 07:32:00,32.0,28.0,-100.00,South,176,4.0,7.0,84,0.00,,,0.00,0.000000,,2013-03-15 11:32:00,
2013-03-15 07:42:00,32.0,28.0,-100.00,South,176,4.0,7.0,84,0.00,,,0.00,0.000000,,2013-03-15 11:42:00,
2013-03-15 07:52:00,32.0,28.0,-100.00,South,176,4.0,7.0,84,0.00,,,0.00,0.000000,,2013-03-15 11:52:00,
2013-03-15 08:23:00,31.0,27.0,-100.00,SSE,150,3.0,7.0,85,0.00,,,0.00,1.000000,,2013-03-15 12:23:00,
2013-03-15 08:32:00,31.0,27.0,-100.00,SSE,150,3.0,7.0,85,0.00,,,0.00,1.000000,,2013-03-15 12:32:00,
2013-03-15 08:42:00,31.0,27.0,-100.00,SSE,150,3.0,7.0,85,0.00,,,0.00,1.000000,,2013-03-15 12:42:00,
2013-03-15 08:52:00,31.0,27.0,-100.00,SSE,150,3.0,7.0,85,0.00,,,0.00,1.000000,,2013-03-15 12:52:00,
2013-03-15 09:22:00,34.0,29.0,-100.00,SSW,200,4.0,7.0,81,0.00,,,0.00,54.000000,,2013-03-15 13:22:00,
2013-03-15 09:32:00,34.0,29.0,-100.00,SSW,200,4.0,7.0,81,0.00,,,0.00,54.000000,,2013-03-15 13:32:00,
2013-03-15 09:42:00,34.0,29.0,-100.00,SSW,200,4.0,7.0,81,0.00,,,0.00,54.000000,,2013-03-15 13:42:00,
2013-03-15 09:52:00,34.0,29.0,-100.00,SSW,200,4.0,7.0,81,0.00,,,0.00,54.000000,,2013-03-15 13:52:00,
2013-03-15 10:22:00,38.0,31.0,-100.00,SW,216,5.0,10.0,75,0.00,,,0.00,112.000000,,2013-03-15 14:22:00,
2013-03-15 10:33:00,38.0,31.0,-100.00,SW,216,5.0,10.0,75,0.00,,,0.00,112.000000,,2013-03-15 14:33:00,
2013-03-15 10:42:00,38.0,31.0,-100.00,SW,216,5.0,10.0,75,0.00,,,0.00,112.000000,,2013-03-15 14:42:00,
2013-03-15 10:52:00,38.0,31.0,-100.00,SW,216,5.0,10.0,75,0.00,,,0.00,112.000000,,2013-03-15 14:52:00,
2013-03-15 11:23:00,41.0,31.0,-100.00,SW,220,6.0,10.0,67,0.00,,,0.00,180.000000,,2013-03-15 15:23:00,
2013-03-15 11:33:00,41.0,31.0,-100.00,SW,220,6.0,10.0,67,0.00,,,0.00,180.000000,,2013-03-15 15:33:00,
2013-03-15 11:43:00,41.0,31.0,-100.00,SW,220,6.0,10.0,67,0.00,,,0.00,180.000000,,2013-03-15 15:43:00,
2013-03-15 11:52:00,41.0,31.0,-100.00,SW,220,6.0,10.0,67,0.00,,,0.00,180.000000,,2013-03-15 15:52:00,
2013-03-15 12:23:00,45.0,32.0,-100.00,SW,227,5.0,10.0,61,0.00,,,0.00,198.000000,,2013-03-15 16:23:00,
2013-03-15 12:32:00,45.0,32.0,-100.00,SW,227,5.0,10.0,61,0.00,,,0.00,198.000000,,2013-03-15 16:32:00,
2013-03-15 12:42:00,45.0,32.0,-100.00,SW,227,5.0,10.0,61,0.00,,,0.00,198.000000,,2013-03-15 16:42:00,
2013-03-15 12:52:00,45.0,32.0,-100.00,SW,227,5.0,10.0,61,0.00,,,0.00,198.000000,,2013-03-15 16:52:00,
2013-03-15 13:22:00,47.0,33.0,-100.00,WNW,282,4.0,11.0,57,0.00,,,0.00,236.000000,,2013-03-15 17:22:00,
2013-03-15 13:32:00,47.0,33.0,-100.00,WNW,282,4.0,11.0,57,0.00,,,0.00,236.000000,,2013-03-15 17:32:00,
2013-03-15 13:42:00,47.0,33.0,-100.00,WNW,282,4.0,11.0,57,0.00,,,0.00,236.000000,,2013-03-15 17:42:00,
2013-03-15 13:52:00,47.0,33.0,-100.00,WNW,282,4.0,11.0,57,0.00,,,0.00,236.000000,,2013-03-15 17:52:00,
2013-03-15 14:22:00,49.0,34.0,-100.00,WSW,241,5.0,9.0,55,0.00,,,-99.99,231.000000,,2013-03-15 18:22:00,
2013-03-15 14:32:00,49.0,34.0,-100.00,WSW,241,5.0,9.0,55,0.00,,,-99.99,231.000000,,2013-03-15 18:32:00,
2013-03-15 14:42:00,49.0,34.0,-100.00,WSW,241,5.0,9.0,55,0.00,,,-99.99,231.000000,,2013-03-15 18:42:00,
2013-03-15 14:52:00,49.0,34.0,-100.00,WSW,241,5.0,9.0,55,0.00,,,-99.99,231.000000,,2013-03-15 18:52:00,
2013-03-15 15:23:00,51.0,34.0,-100.00,SW,222,5.0,10.0,53,0.00,,,0.00,234.000000,,2013-03-15 19:23:00,
2013-03-15 15:32:00,51.0,34.0,-100.00,SW,222,5.0,10.0,53,0.00,,,0.00,234.000000,,2013-03-15 19:32:00,
2013-03-15 15:42:00,51.0,34.0,-100.00,SW,222,5.0,10.0,53,0.00,,,0.00,234.000000,,2013-03-15 19:42:00,
2013-03-15 15:52:00,51.0,34.0,-100.00,SW,222,5.0,10.0,53,0.00,,,0.00,234.000000,,2013-03-15 19:52:00,
2013-03-15 16:22:00,53.0,35.0,-100.00,SW,234,6.0,14.0,50,0.00,,,-99.99,216.000000,,2013-03-15 20:22:00,
2013-03-15 16:32:00,53.0,35.0,-100.00,SW,234,6.0,14.0,50,0.00,,,-99.99,216.000000,,2013-03-15 20:32:00,
2013-03-15 16:42:00,53.0,35.0,-100.00,SW,234,6.0,14.0,50,0.00,,,-99.99,216.000000,,2013-03-15 20:42:00,
2013-03-15 16:52:00,53.0,35.0,-100.00,SW,234,6.0,14.0,50,0.00,,,-99.99,216.000000,,2013-03-15 20:52:00,
2013-03-15 17:22:00,55.0,36.0,-100.00,West,265,5.0,11.0,49,0.00,,,0.00,151.000000,,2013-03-15 21:22:00,
2013-03-15 17:33:00,55.0,36.0,-100.00,West,265,5.0,11.0,49,0.00,,,0.00,151.000000,,2013-03-15 21:33:00,
2013-03-15 17:43:00,55.0,36.0,-100.00,West,265,5.0,11.0,49,0.00,,,0.00,151.000000,,2013-03-15 21:43:00,
2013-03-15 17:52:00,55.0,36.0,-100.00,West,265,5.0,11.0,49,0.00,,,0.00,151.000000,,2013-03-15 21:52:00,
2013-03-15 18:22:00,55.0,36.0,-100.00,WSW,244,4.0,10.0,49,0.00,,,0.00,121.000000,,2013-03-15 22:22:00,
2013-03-15 18:33:00,55.0,36.0,-100.00,WSW,244,4.0,10.0,49,0.00,,,0.00,121.000000,,2013-03-15 22:33:00,
2013-03-15 18:42:00,55.0,36.0,-100.00,WSW,244,4.0,10.0,49,0.00,,,0.00,121.000000,,2013-03-15 22:42:00,
2013-03-15 18:52:00,55.0,36.0,-100.00,WSW,244,4.0,10.0,49,0.00,,,0.00,121.000000,,2013-03-15 22:52:00,
2013-03-15 19:22:00,54.0,36.0,-100.00,WSW,246,3.0,7.0,51,0.00,,,0.00,43.000000,,2013-03-15 23:22:00,
2013-03-15 19:32:00,54.0,36.0,-100.00,WSW,246,3.0,7.0,51,0.00,,,0.00,43.000000,,2013-03-15 23:32:00,
2013-03-15 19:42:00,54.0,36.0,-100.00,WSW,246,3.0,7.0,51,0.00,,,0.00,43.000000,,2013-03-15 23:42:00,
2013-03-15 19:52:00,54.0,36.0,-100.00,WSW,246,3.0,7.0,51,0.00,,,0.00,43.000000,,2013-03-15 23:52:00,
2013-03-15 20:22:00,51.0,36.0,-100.00,SSE,161,0.0,5.0,57,0.00,,,0.00,9.000000,,2013-03-16 00:22:00,
2013-03-15 20:32:00,51.0,36.0,-100.00,SSE,161,0.0,5.0,57,0.00,,,0.00,9.000000,,2013-03-16 00:32:00,
2013-03-15 20:42:00,51.0,36.0,-100.00,SSE,161,0.0,5.0,57,0.00,,,0.00,9.000000,,2013-03-16 00:42:00,
2013-03-15 20:52:00,51.0,36.0,-100.00,SSE,161,0.0,5.0,57,0.00,,,0.00,9.000000,,2013-03-16 00:52:00,
2013-03-15 21:22:00,49.0,37.0,-100.00,SSE,155,2.0,4.0,62,0.00,,,0.00,0.000000,,2013-03-16 01:22:00,
2013-03-15 21:32:00,49.0,37.0,-100.00,SSE,155,2.0,4.0,62,0.00,,,0.00,0.000000,,2013-03-16 01:32:00,
2013-03-15 21:42:00,49.0,37.0,-100.00,SSE,155,2.0,4.0,62,0.00,,,0.00,0.000000,,2013-03-16 01:42:00,
2013-03-15 21:52:00,49.0,37.0,-100.00,SSE,155,2.0,4.0,62,0.00,,,0.00,0.000000,,2013-03-16 01:52:00,
2013-03-15 22:23:00,49.0,36.0,-100.00,ESE,115,2.0,4.0,61,0.00,,,0.00,0.000000,,2013-03-16 02:23:00,
2013-03-15 22:33:00,49.0,36.0,-100.00,ESE,115,2.0,4.0,61,0.00,,,0.00,0.000000,,2013-03-16 02:33:00,
2013-03-15 22:43:00,49.0,36.0,-100.00,ESE,115,2.0,4.0,61,0.00,,,0.00,0.000000,,2013-03-16 02:43:00,
2013-03-15 22:52:00,49.0,36.0,-100.00,ESE,115,2.0,4.0,61,0.00,,,0.00,0.000000,,2013-03-16 02:52:00,
2013-03-15 23:22:00,49.0,37.0,-100.00,ESE,109,4.0,7.0,62,0.00,,,0.00,0.000000,,2013-03-16 03:22:00,
2013-03-15 23:33:00,49.0,37.0,-100.00,ESE,109,4.0,7.0,62,0.00,,,0.00,0.000000,,2013-03-16 03:33:00,
2013-03-15 23:43:00,49.0,37.0,-100.00,ESE,109,4.0,7.0,62,0.00,,,0.00,0.000000,,2013-03-16 03:43:00,
2013-03-15 23:52:00,49.0,37.0,-100.00,ESE,109,4.0,7.0,62,0.00,,,0.00,0.000000,,2013-03-16 03:52:00,